Regional Weather Roundup
Issued by NWS

Home | Current Version | Previous Version | Graphics & Text | Print | Product List | Glossary On
Versions: 1 2 3 4 5 6 7 8 9 10 11 12 13 14 15 16 17 18 19 20 21 22 23 24 25 26 27 28 29 30 31 32 33 34 35 36 37 38 39 40 41 42 43 44 45 46 47 48 49 50
000
ASUS45 KABQ 011001
RWRNM
NEW MEXICO REGIONAL WEATHER ROUNDUP
NATIONAL WEATHER SERVICE ALBUQUERQUE NM
400 AM MDT SAT OCT 01 2016

NOTE: "FAIR" MEANS FEW OR NO CLOUDS BELOW 12,000 FEET AGL WITH NO
       SIGNIFICANT WEATHER OR OBSTRUCTIONS TO VISION.

      THIS PRODUCT IS RELEASED AS TWO VERSIONS.  ONE VERSION NEAR
      THE TOP OF THE HOUR CONTAINING PRELIMINARY DATA FROM ALBUQUERQUE
      AND OTHER STATIONS.  A FINAL VERSION WITH ADDITIONAL DATA IS
      ISSUED ABOUT 10 MINUTES AFTER THE HOUR.

NMZ501-503-504-510>518-011100-
NORTHWEST PLATEAU/NORTHCENTRAL MOUNTAINS

CITY           SKY/WX    TMP DP  RH WIND       PRES   REMARKS
FARMINGTON     FAIR      49  46  90 NE3       30.21F
LOS ALAMOS     FAIR      55  38  52 CALM      30.29F
SANTA FE       FAIR      51  42  71 W5        30.24S
TAOS           FAIR      45  30  57 E5        30.31S
ANGEL FIRE     FAIR      32  30  93 SE5       30.36F WCI  27

$$
NMZ402-403-502-505>509-011100-
WESTCENTRAL MOUNTAINS/SOUTHWEST MOUNTAINS

CITY           SKY/WX    TMP DP  RH WIND       PRES   REMARKS
GALLUP         FAIR      46  44  93 CALM      30.29S
SILVER CITY    FAIR      53  52  94 N6        30.22F

$$
NMZ407-409-411-412-011100-
SOUTHERN DESERTS

CITY           SKY/WX    TMP DP  RH WIND       PRES   REMARKS
DEMING         FAIR      55  53  93 CALM      30.17F
LAS CRUCES     FAIR      61  59  93 W5        30.17F
HOLLOMAN AFB   FAIR      62  60  94 S6        30.14S
ALAMOGORDO     FAIR      59  57  94 SE3       30.16S
T OR C         FAIR      59  54  83 W5        30.17F

$$
NMZ519>523-011100-
CENTRAL VALLEYS/CENTRAL HIGHLANDS

CITY           SKY/WX    TMP DP  RH WIND       PRES   REMARKS
ALBUQUERQUE    FAIR      57  54  89 E6        30.21F
DOUBLE EAGLE   FAIR      53  47  79 NW7       30.24S
MORIARTY ARPT  MOCLDY    47  42  84 E3        30.25S
CLINES CORNERS FAIR      50  44  80 NW7       30.28S
BELEN          FAIR      57  57 100 CALM      30.20F
SOCORRO        FAIR      57  54  89 SW3       30.19S

$$
NMZ524>526-539-540-011100-
SOUTHCENTRAL MOUNTAINS

CITY           SKY/WX    TMP DP  RH WIND       PRES   REMARKS
RUIDOSO        FAIR      50  46  87 W8        30.28F

$$
NMZ527>531-011100-
NORTHEAST HIGHLANDS/NORTHEAST PLAINS

CITY           SKY/WX    TMP DP  RH WIND       PRES   REMARKS
LAS VEGAS      FAIR      48  40  73 N8        30.25F
RATON          FAIR      46  43  89 E7        30.20F
CLAYTON        FAIR      53  50  89 NW5       30.13S

$$
NMZ532>537-011100-
EASTCENTRAL PLAINS

CITY           SKY/WX    TMP DP  RH WIND       PRES   REMARKS
TUCUMCARI      FAIR      55  50  83 S6        30.08F
CANNON AFB     FAIR      53  53 100 E3        30.12F
CLOVIS AIRPORT FAIR      52  46  82 S6        30.12S

$$
NMZ028-029-538-011100-
SOUTHEAST PLAINS

CITY           SKY/WX    TMP DP  RH WIND       PRES   REMARKS
ROSWELL        FAIR      55  51  86 CALM      30.08F
ARTESIA        FAIR      57  57 100 S6        30.10S
CARLSBAD       FAIR      56  54  93 CALM      30.08S
HOBBS          MOCLDY    55  55 100 S3        30.12F


$$




USA.gov is the U.S. government's official web portal to all federal, state and local government web resources and services.